sat.trackr.live / text

‹ back to catalog

STARLINK-3642

NORAD 51989 · 2022-025AK

PAYLOAD ACTIVE UNKNOWN

§ Identity

Operator
Country
US
Launch date
2022-03-09
Launch site
AFETR
Launch vehicle
Mass (kg)
RCS (m²)

Purposes: comms

External: N2YO · Heavens-Above · Gunter

§ Orbital elements

Epoch: 2026-09-20T04:26:02.622048Z

Period
93.85 min
Inclination
53.1586°
Eccentricity
0.0001173
Mean motion
15.34392893 rev/d
Perigee alt
461.9 km
Apogee alt
463.5 km
Semi-major
6,840.9 km
B*
-7.4749e-5
RAAN
229.1278°
Arg perigee
101.6293°
Mean anomaly
258.4841°
Rev number
25,065

§ Raw data

STARLINK-36421 51989U 22025AK  26263.18475257 -.00002900  00000+0 -74749-4 0  99982 51989  53.1586 229.1278 0001173 101.6293 258.4841 15.34392893250654

JSON: /api/v1/satellites/51989 · /tle

For live sub-satellite position, see the globe view (requires WebGL).

§ Visibility from observer

Set your observer location to see the next 7 days of passes ≥ 10°. The values pass through the URL so the page stays shareable.

No JS? Fill the form by hand. The geolocation button needs JavaScript.